Location: Sungai Bunut
(2.6333°N, 113.7333°E)
Time: 09:18:20
(UTC+00:00)

Courier 1B - Pass Details

Date: 07 December 2023
Orbit: 962 x 1209 km, 28.3° (Epoch: 03 March)

Event Time Altitude Azimuth Distance (km) Brightness Sun altitude
Exits shadow 19:32:44 36° 179° (S) 1,800 8.9 -38.5°
Maximum altitude 19:34:26 40° 151° (SSE) 1,678 8.9 -38.1°
Drops below altitude 10° 19:41:22 10° 84° (E) 3,026 10.6 -36.5°
Sets 19:44:18 0° 76° (ENE) 3,950 11.3 -35.9°
